Volver al catálogo

DELTA 1 DEB

ActivoSSO
NORAD 10709·DEBRIS·🇺🇸 United States

Lanzado Jul 29, 1976 desde Vandenberg Space Force Base

Loading…

Próximos Pases (próximas 24 horas)

TLE

ActualizadoSource: Space-Track

Época: Sep 14, 2026, 10:55 UTC

1 10709U 76077AE  26257.45541630 -.00000166  00000-0 -83563-3 0  9997
2 10709 101.9143 324.8179 0019758 349.7466  21.1756 12.46478460277157

Sigue DELTA 1 DEB en tiempo real con AllMySat

Download on the App Store